• In Austria
  • List of Countries
  • For 7 days
  • Water Temperature
  • Satellite Maps
  • Weather Map
  • News
  • Weather Widgets
  • user-avatar
    Login

    Hourly Weather Prilep

    Today, 23 July, Monday

    Time Temperature Precipitation Wind Pressure Humidity
    00:00 +18°C° 0 mm 2 mps 684 mmHg 68%
    01:00 +18°C° 0 mm 2 mps 684 mmHg 70%
    02:00 +18°C° 0 mm 2 mps 684 mmHg 71%
    03:00 +17°C° 0 mm 2 mps 683 mmHg 72%
    04:00 +18°C° 0 mm 1 mps 683 mmHg 73%
    05:00 +20°C° 0 mm 1 mps 683 mmHg 67%
    06:00 +21°C° 0 mm 1 mps 683 mmHg 61%
    07:00 +23°C° 0 mm 1 mps 683 mmHg 55%
    08:00 +25°C° 0.1 mm 1 mps 683 mmHg 50%
    09:00 +27°C° 0.1 mm 1 mps 683 mmHg 44%
    10:00 +29°C° 0.1 mm 2 mps 683 mmHg 38%
    11:00 +29°C° 0.2 mm 2 mps 683 mmHg 37%
    12:00 +30°C° 0.2 mm 2 mps 683 mmHg 35%
    13:00 +30°C° 0.2 mm 3 mps 682 mmHg 34%
    14:00 +29°C° 0.2 mm 3 mps 682 mmHg 38%
    15:00 +27°C° 0.2 mm 3 mps 681 mmHg 43%
    16:00 +26°C° 0.2 mm 4 mps 681 mmHg 48%
    17:00 +24°C° 0.2 mm 3 mps 681 mmHg 53%
    18:00 +21°C° 0.2 mm 3 mps 681 mmHg 59%
    19:00 +20°C° 0.2 mm 2 mps 681 mmHg 64%
    20:00 +19°C° 0.5 mm 2 mps 681 mmHg 69%
    21:00 +17°C° 0.5 mm 2 mps 681 mmHg 74%
    22:00 +16°C° 0.5 mm 2 mps 681 mmHg 79%
    23:00 +16°C° 0 mm 2 mps 681 mmHg 80%

    Tomorrow, 24 July, Tuesday

    Time Temperature Precipitation Wind Pressure Humidity
    00:00 +15°C° 0 mm 2 mps 681 mmHg 82%
    01:00 +15°C° 0 mm 2 mps 680 mmHg 83%
    02:00 +15°C° 0 mm 2 mps 680 mmHg 83%
    03:00 +15°C° 0 mm 2 mps 680 mmHg 84%
    04:00 +14°C° 0 mm 2 mps 680 mmHg 84%
    05:00 +16°C° 0 mm 2 mps 680 mmHg 78%
    06:00 +18°C° 0 mm 3 mps 681 mmHg 72%
    07:00 +19°C° 0 mm 3 mps 681 mmHg 65%
    08:00 +20°C° 0 mm 4 mps 681 mmHg 62%
    09:00 +21°C° 0 mm 4 mps 682 mmHg 59%
    10:00 +22°C° 0 mm 5 mps 682 mmHg 56%
    11:00 +23°C° 0 mm 5 mps 682 mmHg 53%
    12:00 +25°C° 0 mm 5 mps 682 mmHg 50%
    13:00 +26°C° 0 mm 5 mps 682 mmHg 47%
    14:00 +25°C° 0 mm 5 mps 682 mmHg 47%
    15:00 +25°C° 0 mm 5 mps 682 mmHg 48%
    16:00 +25°C° 0 mm 5 mps 682 mmHg 48%
    17:00 +23°C° 0 mm 4 mps 682 mmHg 55%
    18:00 +21°C° 0 mm 3 mps 682 mmHg 62%
    19:00 +19°C° 0 mm 2 mps 682 mmHg 68%
    20:00 +18°C° 0 mm 2 mps 682 mmHg 73%
    21:00 +17°C° 0 mm 2 mps 682 mmHg 78%
    22:00 +16°C° 0 mm 2 mps 682 mmHg 84%
    23:00 +16°C° 0 mm 2 mps 682 mmHg 85%

    Day after tomorrow, 25 July, Wednesday

    Time Temperature Precipitation Wind Pressure Humidity
    00:00 +15°C° 0 mm 2 mps 682 mmHg 87%
    01:00 +15°C° 0 mm 2 mps 682 mmHg 88%
    02:00 +15°C° 0 mm 1 mps 682 mmHg 88%
    03:00 +15°C° 0 mm 1 mps 682 mmHg 88%
    04:00 +15°C° 0 mm 1 mps 682 mmHg 89%
    05:00 +16°C° 0 mm 2 mps 682 mmHg 82%
    06:00 +18°C° 0 mm 2 mps 683 mmHg 75%
    07:00 +20°C° 0 mm 2 mps 683 mmHg 67%
    08:00 +21°C° 0 mm 2 mps 683 mmHg 62%
    09:00 +24°C° 0 mm 3 mps 684 mmHg 56%
    10:00 +25°C° 0 mm 3 mps 684 mmHg 51%
    11:00 +26°C° 0.1 mm 3 mps 684 mmHg 48%
    12:00 +27°C° 0.1 mm 3 mps 684 mmHg 45%
    13:00 +28°C° 0.1 mm 3 mps 683 mmHg 42%
    14:00 +28°C° 0.8 mm 3 mps 683 mmHg 43%
    15:00 +28°C° 0.8 mm 2 mps 683 mmHg 44%
    16:00 +28°C° 0.8 mm 2 mps 683 mmHg 45%
    17:00 +26°C° 0.6 mm 2 mps 683 mmHg 52%
    18:00 +24°C° 0.6 mm 2 mps 683 mmHg 59%
    19:00 +21°C° 0.6 mm 2 mps 683 mmHg 66%
    20:00 +20°C° 0.2 mm 2 mps 683 mmHg 71%
    21:00 +20°C° 0.2 mm 1 mps 683 mmHg 75%
    22:00 +19°C° 0.2 mm 1 mps 683 mmHg 80%
    23:00 +18°C° 0.1 mm 1 mps 683 mmHg 81%

    26 July, Thursday

    Time Temperature Precipitation Wind Pressure Humidity
    00:00 +18°C° 0.1 mm 1 mps 683 mmHg 83%
    01:00 +16°C° 0.1 mm 1 mps 683 mmHg 84%
    02:00 +16°C° 0 mm 1 mps 683 mmHg 85%
    03:00 +16°C° 0 mm 1 mps 683 mmHg 86%
    04:00 +16°C° 0 mm 1 mps 683 mmHg 87%
    05:00 +17°C° 0 mm 2 mps 683 mmHg 82%
    06:00 +19°C° 0 mm 2 mps 684 mmHg 76%
    07:00 +20°C° 0 mm 2 mps 684 mmHg 71%
    08:00 +23°C° 0.2 mm 2 mps 684 mmHg 65%
    09:00 +24°C° 0.2 mm 2 mps 685 mmHg 58%
    10:00 +26°C° 0.2 mm 2 mps 685 mmHg 52%
    11:00 +27°C° 0.4 mm 2 mps 685 mmHg 49%
    12:00 +28°C° 0.4 mm 2 mps 685 mmHg 46%
    13:00 +29°C° 0.4 mm 2 mps 685 mmHg 43%
    14:00 +29°C° 0.5 mm 2 mps 685 mmHg 44%
    15:00 +28°C° 0.5 mm 2 mps 685 mmHg 46%
    16:00 +28°C° 0.5 mm 2 mps 685 mmHg 47%
    17:00 +26°C° 0.9 mm 2 mps 685 mmHg 53%
    18:00 +24°C° 0.9 mm 2 mps 684 mmHg 59%
    19:00 +21°C° 0.9 mm 2 mps 684 mmHg 66%
    20:00 +21°C° 1.2 mm 1 mps 684 mmHg 71%
    21:00 +20°C° 1.2 mm 1 mps 685 mmHg 76%
    22:00 +20°C° 1.2 mm 1 mps 685 mmHg 81%
    23:00 +19°C° 0.2 mm 1 mps 685 mmHg 82%

    27 July, Friday

    Time Temperature Precipitation Wind Pressure Humidity
    00:00 +19°C° 0.2 mm 1 mps 684 mmHg 83%
    01:00 +19°C° 0.2 mm 1 mps 684 mmHg 84%
    02:00 +18°C° 0.1 mm 1 mps 684 mmHg 85%
    03:00 +18°C° 0.1 mm 1 mps 684 mmHg 86%
    04:00 +18°C° 0.1 mm 1 mps 684 mmHg 87%
    05:00 +19°C° 0.1 mm 1 mps 684 mmHg 82%
    06:00 +21°C° 0.1 mm 1 mps 685 mmHg 76%
    07:00 +21°C° 0.1 mm 2 mps 685 mmHg 71%
    08:00 +24°C° 0.6 mm 2 mps 685 mmHg 65%
    09:00 +25°C° 0.6 mm 2 mps 685 mmHg 60%
    10:00 +26°C° 0.6 mm 2 mps 686 mmHg 54%
    11:00 +27°C° 0.8 mm 2 mps 685 mmHg 51%
    12:00 +28°C° 0.8 mm 2 mps 685 mmHg 48%
    13:00 +29°C° 0.8 mm 2 mps 685 mmHg 45%
    14:00 +29°C° 0.7 mm 2 mps 685 mmHg 46%
    15:00 +28°C° 0.7 mm 2 mps 685 mmHg 47%
    16:00 +28°C° 0.7 mm 2 mps 685 mmHg 48%
    17:00 +26°C° 0.5 mm 2 mps 685 mmHg 53%
    18:00 +25°C° 0.5 mm 2 mps 685 mmHg 58%
    19:00 +23°C° 0.5 mm 1 mps 685 mmHg 63%
    20:00 +22°C° 0.5 mm 1 mps 685 mmHg 67%
    21:00 +21°C° 0.5 mm 1 mps 685 mmHg 72%
    22:00 +20°C° 0.5 mm 1 mps 685 mmHg 76%
    23:00 +20°C° 0.1 mm 1 mps 685 mmHg 78%

    28 July, Saturday

    Time Temperature Precipitation Wind Pressure Humidity
    00:00 +19°C° 0.1 mm 1 mps 684 mmHg 80%
    01:00 +19°C° 0.1 mm 1 mps 684 mmHg 82%
    02:00 +19°C° 0 mm 1 mps 684 mmHg 83%
    03:00 +18°C° 0 mm 1 mps 684 mmHg 84%
    04:00 +18°C° 0 mm 1 mps 684 mmHg 85%
    05:00 +19°C° 0 mm 2 mps 684 mmHg 79%
    06:00 +20°C° 0 mm 2 mps 685 mmHg 73%
    07:00 +23°C° 0 mm 2 mps 685 mmHg 67%
    08:00 +25°C° 0 mm 2 mps 685 mmHg 60%
    09:00 +26°C° 0 mm 2 mps 685 mmHg 54%
    10:00 +28°C° 0 mm 3 mps 686 mmHg 47%
    11:00 +29°C° 0.1 mm 3 mps 685 mmHg 44%
    12:00 +30°C° 0.1 mm 3 mps 685 mmHg 41%
    13:00 +31°C° 0.1 mm 3 mps 685 mmHg 38%
    14:00 +30°C° 0 mm 3 mps 685 mmHg 39%
    15:00 +30°C° 0 mm 2 mps 685 mmHg 40%
    16:00 +30°C° 0 mm 2 mps 685 mmHg 41%
    17:00 +28°C° 0.1 mm 2 mps 685 mmHg 45%
    18:00 +26°C° 0.1 mm 2 mps 685 mmHg 50%
    19:00 +24°C° 0.1 mm 2 mps 685 mmHg 55%
    20:00 +23°C° 0.1 mm 2 mps 685 mmHg 59%
    21:00 +21°C° 0.1 mm 2 mps 685 mmHg 64%
    22:00 +20°C° 0.1 mm 2 mps 685 mmHg 68%
    23:00 +19°C° 0 mm 2 mps 685 mmHg 71%
    Show more